Regional Weather Roundup
Issued by NWS

Home | Current Version | Previous Version | Text Only | Print | Product List | Glossary On
Versions: 1 2 3 4 5 6 7 8 9 10 11 12 13 14 15 16 17 18 19 20 21 22 23 24 25 26 27 28 29 30 31 32 33 34 35 36 37 38 39 40 41 42 43 44 45 46 47 48 49 50
000
ASUS43 KLMK 260910
RWRKY
KENTUCKY REGIONAL WEATHER ROUNDUP
NATIONAL WEATHER SERVICE LOUISVILLE KY
500 AM EDT MON SEP 26 2016

NOTE "FAIR" INDICATES FEW OR NO CLOUDS BELOW 12,000 FEET
WITH NO SIGNIFICANT WEATHER AND/OR OBSTRUCTIONS TO VISIBILITY.

KYZ001>023-026-027-061>063-070>075-261000-
WESTERN AND SOUTH CENTRAL KENTUCKY

CITY           SKY/WX    TMP DP  RH WIND       PRES   REMARKS
PADUCAH        CLOUDY    67  57  70 N18G33    30.03R
HENDERSON      CLOUDY    72  66  83 NW26      30.02R
OWENSBORO      NOT AVBL
HOPKINSVILLE   MOCLDY    70  67  88 CALM      29.97S
BOWLING GREEN  CLEAR     67  65  93 CALM      29.97F
GLASGOW        CLEAR    N/A N/A N/A CALM      29.98S
$$

KYZ024-025-028>034-038-045-046-053-261000-
NORTH CENTRAL KENTUCKY

CITY           SKY/WX    TMP DP  RH WIND       PRES   REMARKS
LOUISVILLE/SDF PTCLDY    71  66  84 SE3       29.94F
LOUISVILLE/LOU CLEAR     71  66  84 CALM      29.95F
FORT KNOX      CLEAR     67  64  90 S2        29.95F
$$

KYZ035>037-039>044-047>052-055>060-089>105-261000-
NORTHEAST KENTUCKY

CITY           SKY/WX    TMP DP  RH WIND       PRES   REMARKS
LEXINGTON      CLEAR     68  63  84 S5        29.98F
COVINGTON      CLEAR     66  64  93 S7        29.94F
FRANKFORT      CLEAR     68  63  84 CALM      29.96F
$$

KYZ054-064>069-076>088-106>120-261000-
SOUTHEAST KENTUCKY

CITY           SKY/WX    TMP DP  RH WIND       PRES   REMARKS
JACKSON        CLEAR     68  64  87 CALM      30.01F
LONDON         MOCLDY    67  63  87 CALM      30.03S
SOMERSET       PTCLDY    63  63 100 CALM      30.02F
MIDDLESBORO    CLEAR     63  63 100 CALM      30.05S
MONTICELLO     PTSUNNY   63  62  97 W8        30.03F
$$





USA.gov is the U.S. government's official web portal to all federal, state and local government web resources and services.